Voltar ao catálogo

STARLINK-31706

AtivoComunicaçõesVLEO
NORAD 59437·PAYLOAD·🇺🇸 United States

Lançado Apr 7, 2024 de Vandenberg Space Force Base

Loading…

Próximas Passagens (próximas 24 horas)

TLE

AtualizadoSource: CelesTrak SupGP

Época: Sep 14, 2026, 20:57 UTC

1 59437C 24065S   26257.87340278 -.00074542  00000+0 -22022-2 0  2576
2 59437  53.1575 123.6626 0001323  86.5109 295.7791 15.34430632    12

Acompanhe STARLINK-31706 em tempo real com AllMySat

Download on the App Store